Weather in Trois-Rivieres

Canada     46°20′32″N   72°32′41″W
temp.,
°C
wind,
m/s
gust,
m/s
humid.,
%
clouds,
%
prec.,
mm/h
press.,
hPa
HPBL,
m
10 may, mon
mon1023:00+7wnw2274100 0.0 101113
02:00+5nne0180100 0.0 101010
05:00+4ne11844 0.0 100910
08:00+9w22715 0.0 1011255
11:00+14w34561 0.0 10111180
14:00+16wsw334933 0.0 10091536
17:00+16wsw344685 0.0 10091757
20:00+11w2277100 0.4 101021
11 may, tue
tue1123:00+8wsw3488100 0.2 101070
02:00+8sw61090100 0.7 1010374
05:00+6ssw489366 0.9 1010331
08:00+8sw698985 0.9 1011608
11:00+10sw7770100 0.5 10111331
14:00+12wsw664958 0.6 10101820
17:00+10wsw786255 0.1 10101189
20:00+8n2583100 0.4 1011240
12 may, wed
wed1223:00+6nnw3792100 0.7 1011315
02:00+4wnw239528 1.1 101249
05:00+4nw229447 0.0 101334
08:00+7nnw4878100 0.0 1016437
11:00+12nnw685784 0.3 10171766
14:00+13nnw6951100 0.6 10172119
17:00+13nne5853100 0.0 10171637
20:00+10ese1267100 0.0 101911
13 may, thu
thu1323:00+7ssw22735 0.0 101923
02:00+5wnw22765 0.0 102015
05:00+4wnw22725 0.0 102115
08:00+10wnw25585 0.0 1022345
11:00+15wnw46415 0.0 10211768
14:00+16w475891 0.0 1019819
17:00+15nnw486871 0.8 10191066
20:00+11w12863 2.3 101916
14 may, fri
fri1423:00+9w49920 0.3 1020144
02:00+7wnw33900 0.3 102045
05:00+5nne22840 0.0 102115
08:00+9nne23690 0.0 1023265
11:00+14nnw25440 0.0 10231445
14:00+18w26345 0.0 10212080
17:00+19nne253617 0.0 10201882
20:00+13se33645 0.0 102025